Location: Cortos
(40.7190°N, 4.5893°W)
Time: 19:46:12
(UTC+00:00)

Cosmos 1844 Rocket - Pass Details

Date: 05 July 2020
Orbit: 826 x 843 km, 71.0° (Epoch: 06 August)

Event Time Altitude Azimuth Distance (km) Brightness Sun altitude
Rises 21:06:17 0° 339° (NNW) 3,374 7.1 -11.9°
Reaches altitude 10° 21:08:46 10° 344° (NNW) 2,436 6.1 -12.2°
Maximum altitude 21:14:17 59° 63° (ENE) 951 2.9 -12.9°
Enters shadow 21:18:12 19° 138° (SE) 1,862 3.8 -13.4°
